Weather History for KLDM - December, 2012

Change the Weather History Date:

Monday, December 3, 2012

  Actual Average Record
Temperature  
Mean Temperature 48 °F -  
Max Temperature 65 °F 36 °F 65 °F (2012)
Min Temperature 32 °F 25 °F 2 °F (1976)
Degree Days  
Heating Degree Days 17    
Moisture  
Dew Point 47 °F    
Average Humidity 88    
Maximum Humidity 91    
Minimum Humidity 77    
Precipitation  
Precipitation 0.02 in - - ()
Sea Level Pressure  
Sea Level Pressure 29.89 in    
Wind  
Wind Speed 8 mph (SSE)    
Max Wind Speed 25 mph    
Max Gust Speed 37 mph    
Visibility 4 miles    
Events Fog , Rain    
Averages and records for this station are not official NWS values.
T = Trace of Precipitation, MM = Missing Value Source: NWS Daily Summary

Daily Weather History Graph

Daily Weather History Graph

Search for Another Location

Airport or City:

Trip Planner

Search our weather history database for the weather conditions in past years. The results will help you decide how hot, cold, wet, or windy it might be!

Date:

Astronomy

Dec. 03, 2012 Rise Set
Actual Time 8:02 AM EST 5:08 PM EST
Civil Twilight 7:30 AM EST 5:40 PM EST
Nautical Twilight 6:54 AM EST 6:16 PM EST
Astronomical Twilight 6:19 AM EST 6:51 PM EST
Moon 10:00 PM EST (12/3) 11:20 AM EST (12/3)
Length of Visible Light 10h 10m
Length of Day
9h 05m
Waning Gibbous, 78% of the Moon is Illuminated
Dec 3
Waning Gibbous
Dec 6
Last Quarter
Dec 13
New
Dec 20
First Quarter
Dec 28
Full

Hourly Weather History & Observations

Time (EST) Temp. Windchill Dew Point Humidity Pressure Visibility Wind Dir Wind Speed Gust Speed Precip Events Conditions
12:15 AM 37.6 °F - 34.3 °F 88% 30.09 in 2.0 mi Calm Calm - N/A   Clear
12:35 AM 35.1 °F - 32.0 °F 89% 30.09 in 0.5 mi Calm Calm - N/A Fog Fog
12:55 AM 35.1 °F - 32.2 °F 89% 30.08 in 0.5 mi Calm Calm - N/A Fog Fog
1:15 AM 34.5 °F - 31.8 °F 90% 30.08 in 0.5 mi Calm Calm - N/A Fog Fog
1:35 AM 32.5 °F - 30.2 °F 91% 30.08 in 0.8 mi Calm Calm - N/A   Mist
1:55 AM 32.5 °F - 30.2 °F 91% 30.07 in 2.0 mi Calm Calm - N/A   Clear
2:15 AM 32.5 °F 29.3 °F 30.2 °F 91% 30.06 in 2.5 mi ESE 3.5 mph - N/A   Clear
2:35 AM 35.1 °F 32.2 °F 32.5 °F 91% 30.05 in 1.5 mi East 3.5 mph - N/A   Mist
2:55 AM 35.1 °F 31.0 °F 32.5 °F 91% 30.05 in 2.5 mi East 4.6 mph - N/A   Clear
3:15 AM 35.1 °F 32.2 °F 32.5 °F 91% 30.07 in 3.0 mi ESE 3.5 mph - N/A   Clear
3:36 AM 35.1 °F 32.2 °F 32.5 °F 91% 30.06 in 2.5 mi SE 3.5 mph - N/A   Clear
3:55 AM 37.6 °F 34.0 °F 35.2 °F 91% 30.06 in 3.0 mi SE 4.6 mph - N/A   Mostly Cloudy
4:15 AM 37.9 °F 34.4 °F 35.6 °F 91% 30.05 in 4.0 mi SE 4.6 mph - N/A   Overcast
4:35 AM 40.1 °F 36.1 °F 37.6 °F 91% 30.05 in 3.0 mi ESE 5.8 mph - N/A   Overcast
4:55 AM 40.1 °F 35.3 °F 37.4 °F 90% 30.04 in 3.0 mi ESE 6.9 mph - N/A   Overcast
5:16 AM 40.3 °F 37.1 °F 37.6 °F 90% 30.03 in 3.0 mi ESE 4.6 mph - N/A   Overcast
5:35 AM 41.0 °F 36.4 °F 38.3 °F 90% 30.02 in 3.0 mi ESE 6.9 mph - N/A   Overcast
5:55 AM 41.5 °F 36.4 °F 38.7 °F 89% 30.02 in 3.0 mi SE 8.1 mph - N/A   Overcast
6:15 AM 42.8 °F 38.0 °F 39.6 °F 88% 30.01 in 3.0 mi SE 8.1 mph - N/A   Overcast
6:35 AM 43.2 °F 37.9 °F 40.1 °F 89% 30.01 in 3.0 mi SE 9.2 mph - N/A   Overcast
6:55 AM 43.9 °F 40.5 °F 40.6 °F 88% 30.01 in 3.0 mi SE 5.8 mph - N/A   Overcast
7:15 AM 43.9 °F 38.3 °F 40.6 °F 88% 30.00 in 4.0 mi ESE 10.4 mph - N/A   Overcast
7:35 AM 44.2 °F 39.2 °F 41.0 °F 88% 30.00 in 4.0 mi SE 9.2 mph - N/A   Overcast
7:55 AM 45.0 °F 39.7 °F 41.7 °F 88% 29.99 in 3.0 mi SE 10.4 mph - N/A   Overcast
8:15 AM 45.1 °F 39.9 °F 41.9 °F 88% 29.99 in 1.8 mi SE 10.4 mph - N/A   Overcast
8:35 AM 46.4 °F 41.9 °F 43.3 °F 89% 29.98 in 0.8 mi SE 9.2 mph - N/A   Overcast
8:55 AM 47.7 °F - 44.8 °F 90% 29.97 in 0.5 mi SE 8.1 mph - N/A Fog Fog
9:15 AM 49.1 °F - 46.2 °F 90% 29.97 in 0.5 mi SSE 9.2 mph - N/A Fog Fog
9:35 AM 50.2 °F - 47.5 °F 90% 29.97 in 0.5 mi SSE 11.5 mph 17.3 mph N/A Fog Fog
9:55 AM 50.2 °F - 47.5 °F 90% 29.96 in 0.5 mi SSE 11.5 mph 18.4 mph N/A Fog Fog
10:15 AM 50.2 °F - 47.5 °F 90% 29.95 in 0.5 mi SE 9.2 mph - N/A Fog Fog
10:35 AM 50.2 °F - 47.5 °F 90% 29.95 in 1.2 mi SSE 12.7 mph - N/A   Overcast
10:55 AM 50.2 °F - 47.5 °F 90% 29.93 in 1.0 mi SE 12.7 mph 18.4 mph N/A   Overcast
11:15 AM 52.2 °F - 49.5 °F 91% 29.92 in 1.2 mi SSE 9.2 mph 16.1 mph N/A   Overcast
11:35 AM 52.7 °F - 50.0 °F 91% 29.91 in 1.2 mi SSE 10.4 mph - N/A   Overcast
11:55 AM 55.4 °F - 52.3 °F 89% 29.90 in 2.0 mi SSE 9.2 mph - N/A   Overcast
12:14 PM 55.4 °F - 52.2 °F 89% 29.89 in 3.0 mi SSE 11.5 mph 16.1 mph N/A   Overcast
12:35 PM 55.4 °F - 52.2 °F 89% 29.88 in 1.5 mi SSE 10.4 mph 20.7 mph N/A   Overcast
12:55 PM 55.4 °F - 52.2 °F 89% 29.86 in 1.2 mi SSE 10.4 mph - N/A   Overcast
1:15 PM 55.4 °F - 52.2 °F 89% 29.86 in 1.2 mi SSE 9.2 mph - N/A   Overcast
1:35 PM 55.4 °F - 52.2 °F 89% 29.85 in 1.5 mi SSE 9.2 mph 16.1 mph N/A   Overcast
1:56 PM 56.7 °F - 53.8 °F 90% 29.84 in 1.8 mi South 9.2 mph - N/A   Overcast
2:15 PM 57.7 °F - 54.7 °F 90% 29.82 in 1.5 mi SSE 9.2 mph - N/A   Overcast
2:35 PM 57.7 °F - 54.7 °F 90% 29.81 in 1.5 mi South 10.4 mph - N/A   Overcast
2:56 PM 57.7 °F - 54.7 °F 90% 29.80 in 1.2 mi SSE 11.5 mph 17.3 mph N/A   Overcast
3:15 PM 57.9 °F - 54.9 °F 90% 29.79 in 1.8 mi South 11.5 mph - N/A   Overcast
3:35 PM 60.3 °F - 57.2 °F 90% 29.78 in 2.0 mi South 11.5 mph 21.9 mph N/A   Overcast
3:56 PM 60.3 °F - 57.2 °F 90% 29.78 in 2.0 mi South 11.5 mph 17.3 mph N/A   Overcast
4:15 PM 60.3 °F - 57.2 °F 90% 29.77 in 2.5 mi South 19.6 mph 25.3 mph N/A   Overcast
4:35 PM 60.3 °F - 56.8 °F 88% 29.77 in 3.0 mi South 17.3 mph 21.9 mph N/A   Overcast
4:55 PM 60.3 °F - 56.8 °F 88% 29.77 in 3.0 mi South 15.0 mph 21.9 mph N/A   Overcast
5:16 PM 60.3 °F - 56.7 °F 88% 29.77 in 5.0 mi South 17.3 mph 25.3 mph N/A   Overcast
5:35 PM 61.3 °F - 57.4 °F 87% 29.77 in 5.0 mi South 17.3 mph 23.0 mph N/A   Overcast
5:55 PM 61.7 °F - 57.2 °F 85% 29.76 in 7.0 mi South 13.8 mph 23.0 mph N/A   Overcast
6:16 PM 62.6 °F - 57.9 °F 85% 29.76 in 7.0 mi South 16.1 mph 23.0 mph N/A   Overcast
6:35 PM 62.8 °F - 57.7 °F 84% 29.74 in 7.0 mi South 16.1 mph 27.6 mph N/A   Overcast
6:55 PM 63.0 °F - 57.7 °F 83% 29.74 in 10.0 mi South 19.6 mph 26.5 mph N/A   Overcast
7:16 PM 63.5 °F - 57.7 °F 81% 29.73 in 10.0 mi SSW 19.6 mph 27.6 mph N/A   Overcast
7:35 PM 64.6 °F - 57.9 °F 79% 29.74 in 10.0 mi SSW 19.6 mph 29.9 mph 0.01 in   Overcast
7:55 PM 64.8 °F - 57.7 °F 78% 29.73 in 10.0 mi South 23.0 mph 28.8 mph 0.01 in   Overcast
8:15 PM 63.5 °F - 56.5 °F 78% 29.73 in 10.0 mi SSW 20.7 mph 25.3 mph N/A   Overcast
8:35 PM 63.3 °F - 55.9 °F 77% 29.71 in 10.0 mi SSW 21.9 mph 29.9 mph N/A   Overcast
8:56 PM 62.8 °F - 55.6 °F 77% 29.72 in 10.0 mi SSW 19.6 mph 25.3 mph N/A   Overcast
9:15 PM 60.3 °F - 55.4 °F 84% 29.73 in 7.0 mi SSW 20.7 mph 33.4 mph N/A Rain Light Rain
9:35 PM 57.9 °F - 54.1 °F 87% 29.72 in 10.0 mi SSW 21.9 mph 29.9 mph N/A Rain Light Rain
9:55 PM 57.6 °F - 52.9 °F 84% 29.73 in 7.0 mi SSW 16.1 mph 26.5 mph N/A Rain Light Rain
10:15 PM 55.4 °F - 51.1 °F 85% 29.73 in 10.0 mi SSW 20.7 mph 27.6 mph N/A   Overcast
10:35 PM 57.6 °F - 53.8 °F 87% 29.72 in 10.0 mi SSW 24.2 mph 32.2 mph N/A   Overcast
10:55 PM 57.7 °F - 52.9 °F 84% 29.72 in 10.0 mi SSW 25.3 mph 33.4 mph N/A   Overcast
11:15 PM 57.7 °F - 52.9 °F 84% 29.73 in 10.0 mi SSW 24.2 mph 36.8 mph N/A   Overcast
11:35 PM 55.4 °F - 51.1 °F 85% 29.75 in 7.0 mi SW 21.9 mph 29.9 mph N/A Rain Rain
11:55 PM 55.2 °F - 51.6 °F 88% 29.78 in 5.0 mi SW 18.4 mph 25.3 mph 0.01 in Rain Light Rain